CW5478 Weather Reports


Display with metric or nautical units.
time (UTC)temp
F
wind
direction
speed
MPH
gust
MPH
rain 1hr
in
rain 24hr
in
rain mn
in
humidity
%
barometer
mb
20220627044803 47 45 0.0 0.0 0.02 0.15 0.14 91 1032.5
20220627044303 47 45 0.0 0.0 0.03 0.16 0.14 91 1032.5
20220627043803 47 12 0.0 0.0 0.03 0.16 0.14 91 1032.5
20220627043303 47 0 0.0 0.0 0.03 0.16 0.14 91 1032.5
20220627042803 47 0 0.0 0.0 0.04 0.16 0.14 91 1032.5
20220627042303 47 0 0.0 0.0 0.04 0.16 0.14 91 1032.8
20220627041804 47 0 0.0 0.0 0.04 0.15 0.13 91 1032.8
20220627041303 47 0 0.0 0.0 0.04 0.15 0.13 91 1032.8
20220627040804 47 0 0.0 0.0 0.04 0.15 0.13 91 1032.8
20220627040303 47 0 0.0 3.0 0.04 0.15 0.13 91 1032.5
20220627035804 47 0 3.0 3.0 0.05 0.15 0.13 91 1032.8
20220627035303 47 0 3.0 5.0 0.04 0.14 0.12 91 1032.5
20220627034804 47 0 5.0 7.0 0.04 0.14 0.12 91 1032.5
20220627034303 47 337 6.0 7.0 0.03 0.13 0.11 91 1032.5
20220627033803 47 337 5.0 7.0 0.04 0.13 0.11 91 1032.5
20220627033303 47 337 6.0 8.0 0.04 0.13 0.11 91 1032.2
20220627032804 47 323 6.0 8.0 0.03 0.12 0.10 91 1032.4
20220627032303 47 329 7.0 9.0 0.04 0.12 0.10 91 1032.4
20220627031804 47 337 5.0 8.0 0.03 0.12 0.09 91 1032.4
20220627031304 47 315 5.0 6.0 0.04 0.12 0.09 91 1032.2
20220627030804 47 324 5.0 10.0 0.04 0.15 0.09 91 1032.2
20220627030303 48 315 6.0 9.0 0.04 0.22 0.09 91 1032.2
20220627025804 48 318 6.0 10.0 0.04 0.22 0.08 91 1032.2
20220627025303 48 315 7.0 10.0 0.04 0.23 0.08 91 1031.9
20220627024803 48 320 7.0 12.0 0.04 0.23 0.08 91 1031.9
20220627024304 48 328 9.0 13.0 0.04 0.23 0.08 91 1031.8
20220627023803 48 324 8.0 12.0 0.03 0.22 0.07 91 1032.1
20220627023303 48 328 8.0 12.0 0.03 0.22 0.07 91 1031.9
20220627022804 48 331 7.0 10.0 0.03 0.22 0.07 91 1031.8
20220627022303 48 334 8.0 10.0 0.02 0.21 0.06 91 1031.8
20220627021804 48 323 7.0 12.0 0.02 0.21 0.06 91 1031.8
20220627021304 48 337 7.0 10.0 0.01 0.20 0.05 91 1031.8
20220627020804 48 318 7.0 12.0 0.01 0.20 0.05 91 1031.8
20220627020303 48 313 7.0 10.0 0.01 0.20 0.05 91 1031.8
20220627015804 48 337 9.0 10.0 0.00 0.19 0.04 91 1031.8
20220627015304 48 329 7.0 12.0 0.00 0.19 0.04 91 1031.8
20220627014804 49 337 9.0 12.0 0.00 0.19 0.04 91 1031.8
20220627014304 49 326 7.0 10.0 0.00 0.19 0.04 91 1031.8
20220627013804 49 335 7.0 10.0 0.00 0.19 0.04 91 1031.8
20220627013303 49 316 8.0 12.0 0.00 0.19 0.04 91 1031.8
20220627012803 49 337 7.0 12.0 0.00 0.19 0.04 91 1031.5
20220627012304 49 335 7.0 12.0 0.01 0.19 0.04 91 1031.5
20220627011803 49 317 9.0 12.0 0.01 0.19 0.04 90 1031.5
20220627011303 49 337 7.0 10.0 0.01 0.19 0.04 90 1031.5
20220627010803 49 337 6.0 9.0 0.01 0.19 0.04 90 1031.5
20220627010303 49 337 7.0 10.0 0.01 0.19 0.04 90 1031.5
20220627005803 49 328 7.0 10.0 0.01 0.19 0.04 90 1031.5
20220627005304 49 319 7.0 10.0 0.01 0.19 0.04 90 1031.5
20220627004803 49 326 7.0 10.0 0.01 0.19 0.04 90 1031.5
20220627004304 49 337 8.0 10.0 0.01 0.19 0.04 90 1031.5
20220627003803 50 319 7.0 10.0 0.02 0.19 0.04 89 1031.5
20220627003303 50 333 8.0 10.0 0.02 0.19 0.04 89 1031.5
20220627002804 50 337 7.0 10.0 0.02 0.20 0.04 89 1031.5
20220627002303 50 337 6.0 8.0 0.01 0.19 0.03 88 1031.5
20220627001803 50 337 6.0 8.0 0.01 0.20 0.03 88 1031.5
20220627001304 50 337 6.0 8.0 0.01 0.20 0.03 88 1031.5
20220627000804 50 333 5.0 8.0 0.01 0.20 0.03 88 1031.5
20220627000303 50 337 5.0 8.0 0.01 0.20 0.03 88 1031.5
20220626235804 50 333 6.0 8.0 0.01 0.20 0.03 88 1031.5
20220626235304 50 315 6.0 7.0 0.01 0.20 0.03 87 1031.5
20220626234805 50 315 5.0 7.0 0.01 0.20 0.03 87 1031.5
20220626234303 50 329 5.0 8.0 0.01 0.20 0.03 87 1031.5
20220626233804 50 315 7.0 8.0 0.00 0.19 0.02 87 1031.5
20220626233304 50 318 7.0 9.0 0.00 0.19 0.02 88 1031.5
20220626232803 50 315 6.0 9.0 0.00 0.19 0.02 88 1031.5
20220626232303 50 333 7.0 9.0 0.00 0.19 0.02 88 1031.5
20220626231804 50 315 7.0 12.0 0.00 0.19 0.02 89 1031.5
20220626231303 50 323 7.0 10.0 0.00 0.19 0.02 89 1031.5
20220626230803 50 315 7.0 10.0 0.00 0.19 0.02 89 1031.5
20220626230305 49 315 9.0 10.0 0.00 0.19 0.02 90 1031.7
20220626223803 50 315 7.0 10.0 0.00 0.19 0.02 89 1031.5
20220626222804 50 337 10.0 13.0 0.00 0.19 0.02 88 1031.5
20220626222304 50 315 9.0 14.0 0.00 0.19 0.02 88 1031.5
20220626221803 50 332 6.0 12.0 0.00 0.19 0.02 88 1031.8
20220626221304 51 355 9.0 13.0 0.00 0.19 0.02 87 1031.8
20220626220804 51 337 9.0 12.0 0.00 0.19 0.02 86 1031.7
20220626220304 52 340 10.0 13.0 0.00 0.20 0.02 85 1031.6
20220626215804 52 325 8.0 13.0 0.00 0.20 0.02 83 1031.5
20220626215304 53 320 4.0 7.0 0.00 0.21 0.02 81 1031.6
20220626214803 53 90 5.0 9.0 0.00 0.21 0.02 80 1031.6
20220626214303 53 91 6.0 10.0 0.00 0.21 0.02 80 1031.8
20220626213803 53 90 6.0 9.0 0.00 0.21 0.02 80 1031.5
20220626213303 53 135 6.0 10.0 0.00 0.21 0.02 80 1031.5
20220626212804 53 112 9.0 12.0 0.00 0.21 0.02 80 1031.5
20220626212304 53 132 8.0 13.0 0.00 0.21 0.02 80 1031.8
20220626211804 53 112 9.0 14.0 0.00 0.21 0.02 80 1031.7
20220626211304 53 130 7.0 13.0 0.00 0.21 0.02 80 1031.6
20220626210804 53 98 10.0 14.0 0.00 0.21 0.02 79 1031.5
20220626210303 53 115 9.0 13.0 0.00 0.21 0.02 79 1031.5
20220626205804 53 112 7.0 12.0 0.00 0.21 0.02 79 1031.5
20220626205303 53 112 9.0 14.0 0.00 0.21 0.02 80 1031.5
20220626204804 53 120 10.0 16.0 0.00 0.21 0.02 80 1031.5
20220626204303 52 119 7.0 14.0 0.00 0.21 0.02 81 1031.5
20220626203803 52 99 9.0 14.0 0.00 0.21 0.02 85 1031.5
20220626203305 51 91 3.0 12.0 0.00 0.21 0.02 86 1031.5
20220626202803 51 45 2.0 6.0 0.00 0.21 0.02 86 1031.5
20220626202304 51 0 5.0 8.0 0.00 0.21 0.02 86 1031.5
20220626201804 51 354 4.0 10.0 0.00 0.21 0.02 87 1031.5
20220626201303 51 8 5.0 10.0 0.00 0.21 0.02 87 1031.5
20220626200804 51 12 6.0 14.0 0.00 0.21 0.02 87 1031.5
20220626200304 51 337 7.0 10.0 0.00 0.21 0.02 86 1031.5
20220626195804 51 1 6.0 13.0 0.00 0.21 0.02 85 1031.8
20220626195304 52 40 7.0 12.0 0.00 0.21 0.02 85 1031.8
20220626194803 52 75 8.0 13.0 0.00 0.21 0.02 85 1031.8
20220626194304 52 63 5.0 12.0 0.00 0.21 0.02 86 1031.8
20220626193804 51 6 3.0 7.0 0.00 0.21 0.02 86 1031.8
20220626193305 51 12 5.0 10.0 0.01 0.21 0.02 86 1031.8
20220626192804 51 0 5.0 8.0 0.01 0.21 0.02 88 1031.9
20220626192303 50 67 4.0 6.0 0.01 0.21 0.02 89 1031.9
20220626191804 50 45 5.0 8.0 0.01 0.21 0.02 89 1031.9
20220626191304 49 320 1.0 5.0 0.01 0.21 0.02 89 1032.2
20220626190803 49 318 6.0 10.0 0.01 0.21 0.02 89 1032.2
20220626190304 49 0 7.0 9.0 0.01 0.21 0.02 89 1032.2
20220626185804 48 337 6.0 9.0 0.01 0.21 0.02 89 1032.2
20220626185304 48 12 5.0 10.0 0.01 0.21 0.02 89 1032.2
20220626184804 48 315 5.0 8.0 0.01 0.21 0.02 89 1032.2
20220626184304 48 302 7.0 10.0 0.01 0.21 0.02 89 1032.5
20220626183804 48 337 7.0 10.0 0.01 0.21 0.02 89 1032.2
20220626183302 48 337 7.0 10.0 0.00 0.20 0.01 89 1032.5
20220626182802 48 336 8.0 12.0 0.00 0.20 0.01 89 1032.4
20220626182302 48 320 9.0 14.0 0.00 0.20 0.01 89 1032.5
20220626181802 48 324 9.0 12.0 0.00 0.20 0.01 89 1032.5
20220626181302 48 349 3.0 7.0 0.00 0.20 0.01 88 1032.5
20220626180802 48 334 6.0 12.0 0.00 0.20 0.01 88 1032.5
20220626180302 48 327 7.0 12.0 0.00 0.20 0.01 87 1032.5
20220626175802 49 314 7.0 12.0 0.00 0.20 0.01 87 1032.5
20220626175303 49 11 5.0 8.0 0.00 0.20 0.01 86 1032.5
20220626174802 50 326 3.0 7.0 0.00 0.20 0.01 85 1032.5
20220626174302 51 332 5.0 8.0 0.00 0.20 0.01 84 1032.5
20220626173803 51 45 7.0 13.0 0.00 0.20 0.01 83 1032.5
20220626173302 52 90 7.0 10.0 0.00 0.20 0.01 83 1032.5
20220626172802 52 98 8.0 14.0 0.00 0.20 0.01 82 1032.5
20220626172302 52 118 10.0 14.0 0.00 0.20 0.01 82 1032.5
20220626171802 52 111 10.0 15.0 0.00 0.20 0.01 82 1032.5
20220626171302 53 114 10.0 15.0 0.00 0.20 0.01 82 1032.6
20220626170802 53 105 11.0 16.0 0.00 0.20 0.01 81 1032.5
20220626170302 53 118 12.0 16.0 0.00 0.20 0.01 80 1032.5
20220626165802 53 113 11.0 16.0 0.00 0.20 0.01 80 1032.5
20220626165302 53 111 11.0 16.0 0.00 0.20 0.01 81 1032.5
20220626164802 53 134 11.0 16.0 0.00 0.20 0.01 82 1032.4
20220626164303 53 95 12.0 17.0 0.00 0.20 0.01 82 1032.5
20220626163803 52 111 12.0 16.0 0.00 0.20 0.01 82 1032.2
20220626163303 52 109 10.0 17.0 0.00 0.20 0.01 83 1032.5
20220626162802 52 98 14.0 18.0 0.00 0.20 0.01 83 1032.5
20220626162302 53 90 11.0 16.0 0.00 0.20 0.01 82 1032.4
20220626161802 53 102 9.0 15.0 0.00 0.20 0.01 83 1032.5
20220626161302 53 91 10.0 14.0 0.00 0.20 0.01 83 1032.5
20220626160802 53 97 12.0 15.0 0.00 0.20 0.01 82 1032.2
20220626160302 53 106 9.0 13.0 0.00 0.20 0.01 82 1032.2
20220626155802 53 116 11.0 15.0 0.00 0.20 0.01 82 1032.2
20220626155302 53 102 10.0 14.0 0.00 0.20 0.01 82 1032.2
20220626154802 53 98 9.0 14.0 0.00 0.20 0.01 83 1032.3
20220626154302 53 110 10.0 16.0 0.00 0.20 0.01 83 1032.3
20220626153802 53 113 9.0 12.0 0.00 0.20 0.01 83 1032.5
20220626153302 53 113 11.0 15.0 0.00 0.20 0.01 83 1032.5
20220626152803 52 119 9.0 14.0 0.00 0.20 0.01 83 1032.3
20220626152302 52 105 9.0 14.0 0.00 0.20 0.01 83 1032.5
20220626151802 52 131 6.0 13.0 0.00 0.20 0.01 83 1032.5
20220626151302 52 127 7.0 13.0 0.00 0.20 0.01 84 1032.5
20220626150802 52 91 7.0 12.0 0.00 0.20 0.01 84 1032.5
20220626150302 52 91 7.0 12.0 0.00 0.20 0.01 84 1032.5
20220626145802 52 90 8.0 12.0 0.00 0.20 0.01 85 1032.3
20220626145302 52 90 9.0 12.0 0.00 0.20 0.01 85 1032.2
20220626144802 51 90 6.0 10.0 0.00 0.20 0.01 85 1032.2
20220626144303 51 98 7.0 10.0 0.00 0.20 0.01 86 1032.4
20220626143802 51 75 6.0 9.0 0.00 0.20 0.01 87 1032.2
20220626143302 50 90 5.0 7.0 0.00 0.20 0.01 87 1032.4
20220626142802 50 90 5.0 7.0 0.00 0.20 0.01 87 1032.2
20220626142302 50 112 5.0 6.0 0.00 0.20 0.01 88 1032.2
20220626141801 50 112 4.0 6.0 0.00 0.20 0.01 88 1032.2
20220626141302 50 112 3.0 5.0 0.01 0.20 0.01 88 1032.2
20220626140802 49 112 3.0 5.0 0.01 0.20 0.01 89 1032.2
20220626140302 49 112 3.0 6.0 0.01 0.20 0.01 89 1032.2
20220626135802 49 112 4.0 6.0 0.01 0.20 0.01 89 1032.2
20220626135302 49 112 3.0 5.0 0.01 0.20 0.01 89 1032.2
20220626134802 49 90 2.0 3.0 0.01 0.20 0.01 89 1032.2
20220626134302 49 90 2.0 3.0 0.01 0.20 0.01 89 1032.2
20220626133802 49 90 3.0 3.0 0.01 0.20 0.01 89 1032.0
20220626133302 49 90 2.0 6.0 0.01 0.20 0.01 89 1031.9
20220626132801 49 90 5.0 8.0 0.01 0.20 0.01 89 1032.0
20220626132302 49 67 5.0 8.0 0.01 0.20 0.01 88 1031.8
20220626131802 49 67 4.0 6.0 0.01 0.20 0.01 88 1031.8
20220626131302 49 247 1.0 2.0 0.00 0.19 0.00 88 1031.8
20220626130802 49 247 1.0 2.0 0.00 0.19 0.00 88 1031.8
20220626130303 49 247 0.0 0.0 0.00 0.19 0.00 88 1031.8
20220626125803 49 247 0.0 0.0 0.00 0.19 0.00 88 1031.6
20220626125302 49 247 0.0 0.0 0.00 0.19 0.00 88 1031.6
20220626124802 49 247 0.0 1.0 0.00 0.19 0.00 88 1031.8
20220626124302 49 247 1.0 2.0 0.00 0.19 0.00 88 1031.8
20220626123802 49 247 2.0 2.0 0.00 0.19 0.00 88 1031.5
20220626123302 49 247 2.0 3.0 0.00 0.19 0.00 88 1031.8
20220626122802 49 247 2.0 2.0 0.00 0.19 0.00 88 1031.5
20220626122302 49 247 2.0 3.0 0.00 0.19 0.00 88 1031.5
20220626121802 49 247 2.0 3.0 0.00 0.19 0.00 88 1031.7
20220626121302 49 247 0.0 1.0 0.00 0.19 0.00 87 1031.6
20220626120802 49 247 0.0 0.0 0.00 0.19 0.00 87 1031.5
20220626120302 49 247 0.0 0.0 0.00 0.19 0.00 87 1031.5
20220626115802 49 247 0.0 0.0 0.00 0.19 0.00 87 1031.5
20220626115302 49 247 0.0 1.0 0.00 0.19 0.00 87 1031.5
20220626114802 49 247 1.0 2.0 0.00 0.19 0.00 87 1031.5
20220626114302 49 247 1.0 1.0 0.00 0.19 0.00 87 1031.5
20220626113802 49 247 0.0 0.0 0.00 0.19 0.00 87 1031.5
20220626113302 49 247 0.0 0.0 0.00 0.19 0.00 87 1031.5
20220626112802 49 247 0.0 0.0 0.00 0.19 0.00 87 1031.5
20220626112302 49 247 0.0 0.0 0.00 0.19 0.00 87 1031.5
20220626111802 49 247 0.0 0.0 0.00 0.19 0.00 87 1031.5
20220626111302 49 247 1.0 1.0 0.00 0.19 0.00 87 1031.5
20220626110802 49 247 0.0 1.0 0.00 0.19 0.00 87 1031.3
20220626110302 49 247 0.0 0.0 0.00 0.19 0.00 87 1031.3
20220626105802 49 247 0.0 0.0 0.00 0.19 0.00 87 1031.1
20220626105302 49 247 0.0 1.0 0.00 0.19 0.00 87 1031.1
20220626104802 49 247 0.0 1.0 0.00 0.19 0.00 87 1031.1
20220626104302 49 247 0.0 1.0 0.00 0.19 0.00 87 1031.3
20220626103803 49 247 0.0 0.0 0.00 0.19 0.00 86 1031.1
20220626103302 49 247 0.0 1.0 0.00 0.19 0.00 86 1031.1
20220626102802 49 247 1.0 2.0 0.00 0.19 0.00 86 1031.1
20220626102302 49 247 0.0 1.0 0.00 0.19 0.00 86 1031.1
20220626101802 49 247 1.0 2.0 0.00 0.19 0.00 86 1031.1
20220626101302 49 247 1.0 2.0 0.00 0.19 0.00 86 1031.1
20220626100802 49 247 2.0 3.0 0.00 0.19 0.00 85 1031.1
20220626100302 49 247 2.0 2.0 0.00 0.19 0.00 85 1031.1
20220626095802 49 247 2.0 3.0 0.00 0.19 0.00 85 1030.9
20220626095302 49 247 2.0 2.0 0.00 0.19 0.00 85 1030.8
20220626094802 49 247 2.0 2.0 0.00 0.19 0.00 85 1030.9
20220626094302 49 247 1.0 3.0 0.00 0.19 0.00 85 1031.0
20220626093802 49 247 2.0 5.0 0.00 0.19 0.00 85 1031.1
20220626093302 49 247 3.0 5.0 0.00 0.19 0.00 85 1031.0
20220626092802 49 248 2.0 5.0 0.00 0.19 0.00 86 1031.1
20220626092303 49 315 1.0 3.0 0.00 0.19 0.00 86 1030.8
20220626091803 49 315 2.0 3.0 0.00 0.19 0.00 87 1031.1
20220626091302 49 315 2.0 3.0 0.00 0.19 0.00 87 1031.1
20220626090803 49 315 1.0 3.0 0.00 0.19 0.00 87 1031.0
20220626090302 49 315 2.0 2.0 0.00 0.19 0.00 88 1030.8
20220626085802 49 315 2.0 2.0 0.00 0.19 0.00 89 1030.8
20220626085302 49 315 0.0 0.0 0.00 0.19 0.00 90 1031.0
20220626084803 49 315 0.0 0.0 0.00 0.19 0.00 90 1030.8
20220626084302 49 315 1.0 3.0 0.00 0.19 0.00 90 1031.1
20220626083802 49 315 3.0 5.0 0.00 0.19 0.00 90 1031.1
20220626083302 49 315 3.0 5.0 0.00 0.19 0.00 90 1031.1
20220626082802 49 315 4.0 6.0 0.00 0.19 0.00 90 1031.1
20220626082303 49 315 5.0 6.0 0.00 0.19 0.00 90 1031.1
20220626081802 49 315 5.0 5.0 0.00 0.19 0.00 90 1031.1
20220626081302 49 315 3.0 5.0 0.00 0.19 0.00 90 1031.1
20220626080802 49 315 5.0 6.0 0.00 0.19 0.00 90 1031.3
20220626080302 49 315 5.0 6.0 0.00 0.19 0.00 90 1031.3
20220626075802 49 322 4.0 5.0 0.00 0.19 0.00 90 1031.1
20220626075303 49 315 3.0 5.0 0.00 0.19 0.00 90 1031.1
20220626074803 49 315 4.0 5.0 0.00 0.19 0.00 90 1031.1
20220626074302 49 337 0.0 0.0 0.00 0.19 0.00 90 1031.5
20220626073803 49 337 2.0 3.0 0.00 0.19 0.00 90 1031.5
20220626073302 49 337 0.0 2.0 0.00 0.19 0.00 90 1031.5
20220626072803 49 337 1.0 2.0 0.00 0.19 0.00 90 1031.5
20220626072302 49 337 2.0 3.0 0.00 0.19 0.00 90 1031.5
20220626071802 49 337 3.0 5.0 0.00 0.19 0.00 90 1031.5
20220626071302 49 337 4.0 6.0 0.00 0.19 0.00 89 1031.5
20220626070802 49 337 5.0 6.0 0.00 0.19 0.00 89 1031.5
20220626070302 49 323 5.0 7.0 0.00 0.19 0.00 89 1031.5
20220626065802 49 315 5.0 6.0 0.00 0.19 0.00 89 1031.5
20220626065302 50 292 5.0 7.0 0.00 0.19 0.00 89 1031.5
20220626064802 50 292 6.0 8.0 0.00 0.19 0.00 89 1031.5
20220626064302 50 292 6.0 8.0 0.01 0.19 0.00 89 1031.5
20220626063803 50 292 5.0 7.0 0.01 0.19 0.00 89 1031.5
20220626063303 50 292 5.0 6.0 0.01 0.19 0.00 89 1031.5
20220626062802 50 292 5.0 6.0 0.01 0.19 0.00 88 1031.5
20220626062302 50 292 3.0 6.0 0.01 0.19 0.00 88 1031.8
20220626061802 50 292 5.0 7.0 0.01 0.19 0.00 88 1031.5
20220626061302 50 292 6.0 7.0 0.01 0.19 0.00 87 1031.8
20220626060855 50 112 2.0 3.0 0.01 0.19 0.00 87 1031.8
20220626060302 50 112 0.0 1.0 0.01 0.19 0.00 86 1031.6
20220626055802 50 112 0.0 0.0 0.01 0.19 0.19 86 1031.8
20220626055302 50 112 1.0 2.0 0.01 0.19 0.19 86 1031.8
20220626054803 50 112 3.0 3.0 0.01 0.19 0.19 85 1031.8
20220626054303 50 112 2.0 3.0 0.01 0.18 0.18 85 1031.8
20220626053802 50 112 2.0 3.0 0.01 0.18 0.18 85 1031.8
20220626053302 50 112 5.0 6.0 0.01 0.18 0.18 85 1031.8
20220626052803 50 135 3.0 6.0 0.01 0.18 0.18 86 1031.8
20220626052302 50 122 4.0 6.0 0.01 0.18 0.18 86 1031.8
20220626051802 50 135 4.0 6.0 0.01 0.18 0.18 87 1031.8
20220626051302 50 135 4.0 6.0 0.01 0.18 0.18 87 1031.8
20220626050803 50 135 3.0 6.0 0.01 0.18 0.18 87 1031.8
20220626050303 50 135 6.0 9.0 0.01 0.18 0.18 87 1031.8
20220626045803 51 135 6.0 9.0 0.01 0.18 0.18 87 1031.8
20220626045302 51 100 6.0 9.0 0.01 0.18 0.18 86 1032.0